Regional Weather Roundup
Issued by NWS

Home | Current Version | Previous Version | Graphics & Text | Print | Product List | Glossary On
Versions: 1 2 3 4 5 6 7 8 9 10 11 12 13 14 15 16 17 18 19 20 21 22 23 24 25 26 27 28 29 30 31 32 33 34 35 36 37 38 39 40 41 42 43 44 45 46 47 48 49 50
000
ASUS43 KIND 171609
RWRIN

WEATHER ROUNDUP FOR INDIANA
NATIONAL WEATHER SERVICE INDIANAPOLIS IN
1200 PM EDT FRI APR 17 2015

NOTE: "FAIR" INDICATES FEW OR NO CLOUDS BELOW 12,000 FEET WITH NO
SIGNIFICANT WEATHER AND/OR OBSTRUCTIONS TO VISIBILITY.

* - STATION DOES NOT REPORT WEATHER SUCH AS PRECIPITATION OR FOG.

+ - STATION NOT QUALITY CONTROLLED BY THE NATIONAL WEATHER SERVICE.
    USE DATA WITH CAUTION...ESPECIALLY DEWPOINT AND RELATIVE
    HUMIDITY OBSERVATIONS.

INZ001>003-010>013-019-020-171700-
NORTHWEST INDIANA

CITY           SKY/WX    TMP DP  RH WIND       PRES   REMARKS
GARY /AIRPORT/ MOSUNNY   72  41  33 W7        30.10F
KNOX *+        SUNNY     68  30  24 W7        30.11F
MICHIGAN CITY+ CLOUDY    70  37  30 W7        30.10F
MONTICELLO +   SUNNY     67  55  65 SW3       30.11F
RENSSELAER +   SUNNY     70  52  52 W3        30.11F
VALPARAISO     SUNNY     69  49  48 W5        30.12F

$$

LMZ046-743>745-171700-
SOUTHERN LAKE MICHIGAN

STATION/POSITION TIME  TEMP WIND        PRES
                       AIR  DIR/SP/G
                 (UTC) (F)  (DEG/KT/KT) (MB)
BURNS HARBOR     1600   62  270/  4/  5 1020.0S
MICHIGAN CITY    1600   60  220/  8/  8   N/A

$$

INZ004-005-014>016-021>024-171700-
NORTH CENTRAL INDIANA

CITY           SKY/WX    TMP DP  RH WIND       PRES   REMARKS
ELKHART        SUNNY     68  41  37 W7        30.12S
GOSHEN         SUNNY     68  51  54 W9        30.11S
LOGANSPORT +   SUNNY     66  54  63 W5        30.13F
PERU/GRISSOM   SUNNY     64  62  94 VRB3      30.11F
ROCHESTER +    SUNNY     70  55  60 W5        30.13S
SOUTH BEND     CLOUDY    69  49  48 VRB7      30.12F
WARSAW +       SUNNY     68  50  52 W3        30.12S

$$

INZ006>009-017-018-025>027-171700-
NORTHEAST INDIANA

CITY           SKY/WX    TMP DP  RH WIND       PRES   REMARKS
ANGOLA *+      SUNNY     70  46  43 NW6       30.10F
AUBURN +       SUNNY     68  43  40 NW5       30.11F
FORT WAYNE     PTSUNNY   68  46  45 CALM      30.12F
HUNTINGTON +   SUNNY     67  46  47 NW3       30.12F

$$

INZ028-029-035-036-043>045-051>053-171700-
WEST CENTRAL INDIANA

CITY           SKY/WX    TMP DP  RH WIND       PRES   REMARKS
CRAWFORDSVL +  SUNNY     67  43  42 CALM      30.13F
GREENCASTLE +  SUNNY     66  46  48 CALM      30.13F
LAFAYETTE      SUNNY     65  57  75 W3        30.12F
TERRE HAUTE    MOSUNNY   69  56  62 VRB7      30.12F

$$

INZ030>032-037>040-046>048-054>057-064-065-171700-
CENTRAL INDIANA

CITY           SKY/WX    TMP DP  RH WIND       PRES   REMARKS
ANDERSON       SUNNY     66  50  55 CALM      30.15S
CP ATTERBURY + MOSUNNY   68  46  45 CALM      30.14F
COLUMBUS       SUNNY     64  50  59 NE6       30.14F
FISHERS *+     SUNNY     66  50  55 E3        30.13
FRANKFORT +    SUNNY     69  53  56 CALM      30.14F
GREENWOOD *+   SUNNY     68  45  42 CALM      30.14F
INDIANAPOLIS   MOSUNNY   69  47  45 CALM      30.12F
-EAGLE CREEK   SUNNY     67  50  54 W5        30.12F
KOKOMO *+      SUNNY     66  50  55 N6        30.12F
MARION +       SUNNY     64  56  77 NW5       30.14S
MT COMFORT *+  SUNNY     70  37  30 N5        30.13F
SHELBYVILLE    SUNNY     71  48  43 NE6       30.13F
ZIONSVILLE +   SUNNY     69  44  40 N6        30.14S

$$

INZ033-034-041-042-049-050-058-059-171700-
EAST CENTRAL INDIANA

CITY           SKY/WX    TMP DP  RH WIND       PRES   REMARKS
MUNCIE         SUNNY     66  51  58 NW3       30.13F

$$

INZ060-061-067>069-081>083-085>088-171700-
SOUTHWEST INDIANA

CITY           SKY/WX    TMP DP  RH WIND       PRES   REMARKS
EVANSVILLE     PTSUNNY   72  61  68 NE6       30.10F
HUNTINGBURG *+ MOSUNNY   72  57  60 SE3       30.12S
WASHINGTON +   SUNNY     70  51  50 E5        30.12S

$$

INZ062-063-066-070>080-084-089>092-171700-
SOUTH CENTRAL AND SOUTHEAST INDIANA

CITY           SKY/WX    TMP DP  RH WIND       PRES   REMARKS
BEDFORD +      MOSUNNY   70  48  46 N5        30.12F
BLOOMINGTON    MOSUNNY   67  55  65 VRB3      30.12F
MADISON *+     MOSUNNY   70  50  49 CALM      30.14F
NORTH VERNON + MOSUNNY   66  54  63 E3        30.14F

$$



USA.gov is the U.S. government's official web portal to all federal, state and local government web resources and services.